カタログに戻る

FOSSASAT2E20

TAT-O

運用中通信SSO
NORAD 63003·PAYLOAD·🇪🇸 Spain

打ち上げ Jan 14, 2025 から Vandenberg Space Force Base

Loading…

次のパス (今後24時間)

TLE

最新Source: Space-Track

元期: Sep 14, 2026, 12:23 UTC

1 63003U 25009DN  26257.51621997  .00010942  00000-0  35919-3 0  9996
2 63003  97.3096 332.1043 0003278  40.3939 319.7546 15.31753251150174

AllMySatでFOSSASAT2E20をリアルタイム追跡

Download on the App Store